TimePDT,TemperatureF,Dew PointF,Humidity,Sea Level PressureIn,VisibilityMPH,Wind Direction,Wind SpeedMPH,Gust SpeedMPH,PrecipitationIn,Events,Conditions,WindDirDegrees,DateUTC
12:15 AM,41.0,26.6,57,30.12,10.0,Calm,Calm,-,N/A,,Clear,0,2013-10-02 07:15:00
12:35 AM,41.0,26.6,57,30.12,10.0,Calm,Calm,-,N/A,,Clear,0,2013-10-02 07:35:00
12:55 AM,41.0,24.8,53,30.11,10.0,Calm,Calm,-,N/A,,Clear,0,2013-10-02 07:55:00
1:15 AM,41.0,24.8,53,30.11,10.0,Calm,Calm,-,N/A,,Clear,0,2013-10-02 08:15:00
1:35 AM,41.0,24.8,53,30.11,10.0,Calm,Calm,-,N/A,,Clear,0,2013-10-02 08:35:00
1:55 AM,41.0,24.8,53,30.11,10.0,Calm,Calm,-,N/A,,Clear,0,2013-10-02 08:55:00
2:15 AM,39.2,23.0,52,30.11,10.0,Calm,Calm,-,N/A,,Clear,0,2013-10-02 09:15:00
2:35 AM,37.4,23.0,56,30.10,10.0,Calm,Calm,-,N/A,,Clear,0,2013-10-02 09:35:00
2:55 AM,39.2,24.8,56,30.10,10.0,SSE,3.5,-,N/A,,Clear,160,2013-10-02 09:55:00
3:15 AM,33.8,21.2,60,30.09,10.0,Calm,Calm,-,N/A,,Clear,0,2013-10-02 10:15:00
3:35 AM,32.0,21.2,64,30.09,10.0,Calm,Calm,-,N/A,,Clear,0,2013-10-02 10:35:00
3:55 AM,32.0,21.2,64,30.08,10.0,Calm,Calm,-,N/A,,Clear,0,2013-10-02 10:55:00
4:15 AM,30.2,21.2,69,30.09,10.0,Calm,Calm,-,N/A,,Clear,0,2013-10-02 11:15:00
4:35 AM,32.0,21.2,64,30.08,10.0,Calm,Calm,-,N/A,,Clear,0,2013-10-02 11:35:00
4:55 AM,33.8,23.0,65,30.08,10.0,NNW,3.5,-,N/A,,Clear,330,2013-10-02 11:55:00
5:15 AM,32.0,21.2,64,30.08,10.0,Calm,Calm,-,N/A,,Clear,0,2013-10-02 12:15:00
5:35 AM,30.2,21.2,69,30.08,10.0,Calm,Calm,-,N/A,,Clear,0,2013-10-02 12:35:00
5:55 AM,30.2,21.2,69,30.08,10.0,Calm,Calm,-,N/A,,Clear,0,2013-10-02 12:55:00
6:15 AM,30.2,21.2,69,30.08,10.0,Calm,Calm,-,N/A,,Clear,0,2013-10-02 13:15:00
6:35 AM,33.8,23.0,65,30.08,10.0,Calm,Calm,-,N/A,,Clear,0,2013-10-02 13:35:00
6:55 AM,30.2,21.2,69,30.09,10.0,Calm,Calm,-,N/A,,Clear,0,2013-10-02 13:55:00
7:15 AM,28.4,19.4,69,30.09,10.0,Calm,Calm,-,N/A,,Clear,0,2013-10-02 14:15:00
7:35 AM,33.8,23.0,65,30.09,10.0,Calm,Calm,-,N/A,,Clear,0,2013-10-02 14:35:00
7:55 AM,37.4,24.8,60,30.09,10.0,Calm,Calm,-,N/A,,Clear,0,2013-10-02 14:55:00
8:15 AM,44.6,26.6,49,30.09,10.0,SSE,6.9,-,N/A,,Clear,150,2013-10-02 15:15:00
8:35 AM,44.6,28.4,53,30.10,10.0,SE,4.6,-,N/A,,Clear,130,2013-10-02 15:35:00
8:55 AM,48.2,28.4,46,30.10,10.0,SSE,4.6,-,N/A,,Clear,160,2013-10-02 15:55:00
9:15 AM,53.6,26.6,35,30.10,10.0,SE,6.9,-,N/A,,Clear,130,2013-10-02 16:15:00
9:35 AM,57.2,26.6,31,30.10,10.0,East,4.6,-,N/A,,Clear,100,2013-10-02 16:35:00
9:55 AM,59.0,21.2,23,30.10,10.0,East,4.6,-,N/A,,Clear,80,2013-10-02 16:55:00
10:15 AM,60.8,24.8,25,30.09,10.0,ESE,5.8,-,N/A,,Clear,120,2013-10-02 17:15:00
10:35 AM,62.6,14.0,15,30.08,10.0,SSE,6.9,-,N/A,,Clear,150,2013-10-02 17:35:00
10:55 AM,62.6,15.8,16,30.09,10.0,WSW,3.5,35.7,N/A,,Clear,250,2013-10-02 17:55:00
11:15 AM,64.4,17.6,16,30.10,10.0,West,4.6,16.1,N/A,,Clear,270,2013-10-02 18:15:00
11:35 AM,64.4,17.6,16,30.08,10.0,SSW,17.3,21.9,N/A,,Clear,210,2013-10-02 18:35:00
11:55 AM,66.2,17.6,15,30.08,10.0,SW,16.1,28.8,N/A,,Clear,230,2013-10-02 18:55:00
12:15 PM,64.4,15.8,15,30.08,10.0,SW,15.0,24.2,N/A,,Clear,220,2013-10-02 19:15:00
12:35 PM,64.4,15.8,15,30.07,10.0,SW,10.4,18.4,N/A,,Clear,220,2013-10-02 19:35:00
12:55 PM,66.2,17.6,15,30.06,10.0,SW,18.4,32.2,N/A,,Clear,230,2013-10-02 19:55:00
1:15 PM,66.2,19.4,17,30.07,10.0,WNW,11.5,27.6,N/A,,Clear,300,2013-10-02 20:15:00
1:35 PM,66.2,17.6,15,30.07,10.0,West,16.1,31.1,N/A,,Clear,280,2013-10-02 20:35:00
1:55 PM,66.2,15.8,14,30.07,10.0,West,27.6,35.7,N/A,,Clear,280,2013-10-02 20:55:00
2:15 PM,66.2,17.6,15,30.07,10.0,West,25.3,36.8,N/A,,Clear,280,2013-10-02 21:15:00
2:35 PM,66.2,14.0,13,30.07,10.0,WSW,17.3,31.1,N/A,,Clear,240,2013-10-02 21:35:00
2:55 PM,64.4,12.2,13,30.07,10.0,WNW,19.6,25.3,N/A,,Clear,290,2013-10-02 21:55:00
3:15 PM,64.4,15.8,15,30.07,10.0,WSW,15.0,25.3,N/A,,Clear,250,2013-10-02 22:15:00
3:35 PM,64.4,12.2,13,30.07,10.0,WNW,18.4,28.8,N/A,,Clear,290,2013-10-02 22:35:00
3:55 PM,64.4,12.2,13,30.07,10.0,West,16.1,27.6,N/A,,Clear,270,2013-10-02 22:55:00
4:15 PM,64.4,10.4,12,30.07,10.0,West,19.6,28.8,N/A,,Clear,270,2013-10-02 23:15:00
4:35 PM,62.6,17.6,18,30.06,10.0,West,23.0,29.9,N/A,,Clear,280,2013-10-02 23:35:00
4:55 PM,62.6,17.6,18,30.06,10.0,West,19.6,24.2,N/A,,Clear,280,2013-10-02 23:55:00
5:15 PM,62.6,17.6,18,30.06,10.0,WNW,16.1,21.9,N/A,,Clear,290,2013-10-03 00:15:00
5:35 PM,60.8,14.0,16,30.06,10.0,West,13.8,20.7,N/A,,Clear,270,2013-10-03 00:35:00
5:55 PM,60.8,19.4,20,30.06,10.0,NW,9.2,20.7,N/A,,Clear,310,2013-10-03 00:55:00
6:15 PM,59.0,19.4,22,30.06,10.0,NW,13.8,20.7,N/A,,Clear,310,2013-10-03 01:15:00
6:35 PM,55.4,23.0,29,30.05,10.0,NNW,15.0,24.2,N/A,,Clear,330,2013-10-03 01:35:00
6:55 PM,53.6,24.8,33,30.06,10.0,NW,12.7,21.9,N/A,,Clear,310,2013-10-03 01:55:00
7:15 PM,51.8,26.6,38,30.07,10.0,NW,11.5,20.7,N/A,,Clear,310,2013-10-03 02:15:00
7:35 PM,50.0,28.4,43,30.07,10.0,NNW,16.1,19.6,N/A,,Clear,330,2013-10-03 02:35:00
7:55 PM,50.0,26.6,40,30.07,10.0,NW,12.7,19.6,N/A,,Clear,320,2013-10-03 02:55:00
8:15 PM,50.0,26.6,40,30.08,10.0,WNW,13.8,20.7,N/A,,Clear,300,2013-10-03 03:15:00
8:35 PM,50.0,23.0,35,30.08,10.0,West,8.1,16.1,N/A,,Clear,280,2013-10-03 03:35:00
8:55 PM,50.0,24.8,37,30.09,10.0,West,9.2,-,N/A,,Clear,280,2013-10-03 03:55:00
9:15 PM,48.2,23.0,37,30.09,10.0,West,4.6,-,N/A,,Clear,260,2013-10-03 04:15:00
9:35 PM,46.4,23.0,40,30.09,10.0,Calm,Calm,-,N/A,,Clear,0,2013-10-03 04:35:00
9:55 PM,44.6,21.2,39,30.09,10.0,Calm,Calm,-,N/A,,Clear,0,2013-10-03 04:55:00
10:15 PM,44.6,19.4,37,30.09,10.0,SE,3.5,-,N/A,,Clear,140,2013-10-03 05:15:00
10:35 PM,42.8,17.6,36,30.09,10.0,Calm,Calm,-,N/A,,Clear,0,2013-10-03 05:35:00
10:55 PM,41.0,15.8,36,30.09,10.0,SE,5.8,-,N/A,,Clear,140,2013-10-03 05:55:00
11:15 PM,41.0,19.4,42,30.09,10.0,Calm,Calm,-,N/A,,Clear,0,2013-10-03 06:15:00
11:35 PM,41.0,15.8,36,30.09,10.0,SW,3.5,-,N/A,,Clear,220,2013-10-03 06:35:00
11:55 PM,41.0,17.6,39,30.08,10.0,SW,3.5,-,N/A,,Clear,220,2013-10-03 06:55:00